Terminal Aerodrome Forecast
Issued by NWS

Home | Current Version | Previous Version | Text Only | Print | Product List | Glossary On
Versions: 1 2 3 4 5 6 7 8 9 10 11 12 13 14 15 16 17 18 19 20 21 22 23 24 25 26 27 28 29 30 31 32 33 34 35 36 37 38 39 40 41
000
FTUS41 KBOX 300826 AAA
TAFFMH
TAF AMD
KFMH 300826Z 3008/3106 20004KT 1/4SM FG OVC003
     FM301200 22008KT 3/4SM BR BKN003
     FM301300 22010KT 4SM BR BKN003
     FM301400 22011KT P6SM BKN250
     FM301800 22015G25KT P6SM BKN250
     FM302200 21015G23KT P6SM SCT008=

USA.gov is the U.S. government's official web portal to all federal, state and local government web resources and services.